Total_Precipitation_Accumulation
1.44 1.28 2.08 2.05 1.81 1.61 1.52 1.51 1.56 1.66 1.71 1.68 1.59 1.42 1.29 1.23 1.28 1.36 1.47 1.43 1.37 1.37 1.32 1.27 1.25 1.28 1.21 1.12 1.23 1.35 1.52 1.67 1.54 1.50 1.53 1.57 1.67 1.72 1.95 2.16 2.19 2.18 2.16
1.09 1.17 1.91 1.91 1.70 1.52 1.48 1.52 1.52 1.50 1.49 1.52 1.57 1.39 1.32 1.31 1.40 1.47 1.48 1.41 1.35 1.29 1.25 1.23 1.32 1.33 1.20 1.16 1.32 1.51 1.61 1.70 1.61 1.66 1.84 1.79 1.79 1.89 1.97 2.07 2.18 2.23 2.16
0.97 1.06 1.49 1.79 1.70 1.58 1.51 1.49 1.50 1.46 1.42 1.44 1.46 1.44 1.33 1.44 1.56 1.57 1.50 1.42 1.43 1.33 1.27 1.25 1.28 1.36 1.26 1.27 1.48 1.61 1.52 1.61 1.81 1.92 2.18 2.36 1.98 1.90 1.87 2.00 1.97 2.01 2.07
0.84 0.97 1.35 1.85 1.77 1.70 1.67 1.65 1.68 1.56 1.39 1.34 1.29 1.27 1.27 1.38 1.48 1.58 1.61 1.50 1.52 1.44 1.29 1.22 1.20 1.29 1.28 1.31 1.52 1.53 1.48 1.61 1.88 1.98 2.04 2.21 2.17 2.08 2.12 2.18 2.10 2.01 2.07
0.86 0.95 1.47 1.98 1.80 1.70 1.69 1.79 1.75 1.58 1.41 1.28 1.21 1.23 1.27 1.39 1.51 1.56 1.46 1.44 1.52 1.51 1.42 1.41 1.36 1.40 1.39 1.45 1.49 1.51 1.63 1.76 1.89 1.70 1.78 2.03 2.59 2.55 2.21 2.32 2.36 2.20 2.05
0.76 0.86 1.33 1.91 1.77 1.64 1.58 1.73 1.64 1.51 1.50 1.37 1.28 1.31 1.39 1.54 1.74 1.72 1.57 1.56 1.54 1.55 1.46 1.47 1.46 1.49 1.52 1.53 1.54 1.62 1.77 1.87 1.67 1.67 1.82 2.03 2.48 2.57 2.13 2.15 2.22 2.22 2.08
0.76 0.81 1.11 1.65 1.64 1.53 1.49 1.57 1.53 1.52 1.53 1.38 1.30 1.33 1.40 1.50 1.73 1.88 1.80 1.73 1.68 1.63 1.53 1.47 1.47 1.44 1.46 1.54 1.53 1.64 1.79 1.71 1.46 1.73 1.79 2.10 2.29 2.33 2.04 2.00 2.05 2.14 2.29
0.86 0.77 0.91 1.41 1.51 1.42 1.44 1.47 1.45 1.44 1.38 1.26 1.27 1.33 1.34 1.41 1.57 1.74 1.78 1.78 1.73 1.62 1.61 1.59 1.58 1.49 1.49 1.46 1.56 1.70 1.75 1.46 1.11 1.39 1.71 2.08 2.49 2.43 2.03 1.93 2.00 2.13 2.36
1.23 1.03 0.98 1.09 1.18 1.25 1.36 1.41 1.54 1.60 1.42 1.25 1.18 1.20 1.22 1.24 1.35 1.46 1.56 1.61 1.59 1.57 1.58 1.55 1.53 1.55 1.58 1.49 1.47 1.55 1.53 1.37 1.21 1.34 1.33 2.01 2.61 2.48 2.11 1.93 1.89 1.99 2.19
1.27 1.20 1.12 1.13 1.10 1.07 1.16 1.42 1.70 1.79 1.63 1.37 1.22 1.14 1.19 1.18 1.21 1.34 1.36 1.55 1.63 1.62 1.66 1.68 1.62 1.56 1.62 1.58 1.53 1.48 1.40 1.20 1.05 1.13 1.42 2.00 2.68 2.58 2.23 1.94 1.76 1.65 1.84
1.18 1.20 1.13 1.13 1.16 1.23 1.25 1.37 1.70 1.85 1.81 1.41 1.16 1.14 1.07 0.96 1.06 1.16 1.18 1.56 1.74 1.85 1.86 1.85 1.73 1.62 1.55 1.53 1.57 1.52 1.19 0.99 1.00 1.14 1.52 2.28 2.82 2.75 2.29 1.95 1.75 1.60 1.57
1.01 1.03 1.05 1.04 1.01 1.03 1.06 1.42 1.68 1.54 1.60 1.28 1.19 1.10 1.05 1.12 1.14 0.99 1.06 1.46 1.71 1.87 1.86 1.79 1.74 1.57 1.34 1.19 1.21 1.20 0.96 0.82 0.87 1.05 1.61 2.53 3.04 3.03 2.51 2.02 1.73 1.58 1.57
0.89 0.81 0.78 0.84 0.80 0.80 0.91 1.08 1.38 1.60 1.61 1.53 1.44 1.33 1.29 1.21 1.04 0.97 1.05 1.16 1.35 1.46 1.42 1.51 1.49 1.36 1.22 1.15 1.15 1.05 0.95 0.80 0.88 1.02 1.66 2.41 2.93 3.08 2.71 2.15 1.78 1.73 1.80
0.94 0.93 0.76 0.70 0.70 0.69 0.74 0.88 1.12 1.30 1.40 1.39 1.29 1.17 1.35 1.31 1.10 1.04 1.19 1.30 1.35 1.42 1.59 1.62 1.55 1.42 1.28 1.16 1.15 1.06 0.99 0.95 0.93 1.01 1.59 2.04 2.54 2.83 2.86 2.52 2.12 1.90 1.83
0.96 1.01 0.89 0.71 0.66 0.69 0.73 0.79 0.85 1.04 1.13 1.13 1.25 1.17 1.21 1.22 1.11 1.06 1.12 1.35 1.41 1.45 1.67 1.76 1.58 1.49 1.48 1.41 1.34 1.27 1.21 1.13 1.09 1.05 1.38 1.73 2.11 2.62 3.03 2.98 2.62 2.14 1.99
0.87 0.91 0.86 0.76 0.74 0.74 0.72 0.67 0.68 0.70 0.85 0.87 0.87 0.82 1.01 1.16 1.15 1.18 1.12 1.26 1.50 1.58 1.64 1.67 1.60 1.51 1.46 1.46 1.40 1.42 1.40 1.20 1.24 1.23 1.30 1.38 1.59 1.96 2.63 3.05 2.82 2.36 2.18
0.73 0.77 0.81 0.82 0.81 0.79 0.80 0.77 0.72 0.71 0.75 0.81 0.87 0.85 0.95 1.08 1.17 1.17 1.08 1.16 1.39 1.62 1.68 1.66 1.61 1.61 1.43 1.33 1.41 1.48 1.48 1.36 1.37 1.39 1.34 1.31 1.26 1.50 2.06 2.70 2.84 2.64 2.52
0.56 0.61 0.68 0.69 0.74 0.78 0.82 0.86 0.80 0.82 0.83 0.80 0.84 0.83 0.84 0.99 1.15 1.25 1.19 1.16 1.34 1.59 1.84 1.98 1.83 1.74 1.60 1.48 1.51 1.51 1.45 1.51 1.48 1.44 1.38 1.37 1.39 1.31 1.48 1.79 2.16 2.55 2.70
0.44 0.43 0.49 0.56 0.63 0.70 0.78 0.87 0.84 0.84 0.98 1.03 0.92 0.81 0.85 0.97 1.07 1.30 1.42 1.36 1.41 1.62 1.76 1.84 1.88 1.74 1.70 1.61 1.46 1.43 1.39 1.49 1.56 1.41 1.38 1.37 1.47 1.44 1.35 1.20 1.35 1.70 2.18
0.40 0.38 0.40 0.48 0.52 0.53 0.66 0.84 0.93 0.87 0.93 1.13 1.17 1.17 1.20 1.24 1.27 1.44 1.57 1.59 1.60 1.72 1.75 1.93 2.15 1.96 1.75 1.70 1.53 1.42 1.37 1.40 1.46 1.48 1.53 1.50 1.52 1.47 1.42 1.27 1.21 1.07 1.38
0.37 0.34 0.38 0.44 0.47 0.48 0.57 0.71 0.80 0.88 1.04 1.24 1.29 1.36 1.50 1.50 1.51 1.64 1.76 1.82 1.79 1.74 1.84 2.04 2.44 2.33 1.97 1.75 1.76 1.63 1.47 1.41 1.48 1.46 1.61 1.69 1.61 1.53 1.55 1.47 1.33 1.18 1.06
0.35 0.33 0.33 0.41 0.52 0.57 0.61 0.74 0.89 1.11 1.23 1.37 1.52 1.51 1.53 1.58 1.62 1.71 1.92 2.04 2.01 2.02 2.12 2.18 2.46 2.63 2.36 2.14 2.14 2.30 2.06 1.84 1.50 1.25 1.34 1.48 1.55 1.57 1.54 1.57 1.47 1.31 1.26
0.32 0.39 0.39 0.48 0.68 0.87 0.95 1.16 1.43 1.68 1.75 1.69 1.69 1.75 1.73 1.75 1.81 1.78 1.90 2.10 2.11 2.11 2.18 2.37 2.69 3.01 2.94 2.64 2.42 2.61 2.35 2.08 1.98 1.47 1.20 1.28 1.43 1.54 1.56 1.63 1.59 1.46 1.40
0.34 0.46 0.63 0.82 1.11 1.34 1.45 1.62 1.84 1.94 1.97 1.90 1.91 1.92 1.91 1.81 1.73 1.72 1.84 2.04 2.20 2.33 2.45 2.52 2.53 2.92 3.20 2.99 2.81 2.47 2.17 2.04 2.19 2.01 1.55 1.29 1.34 1.40 1.46 1.46 1.56 1.62 1.57
0.59 0.80 1.13 1.38 1.59 1.71 1.75 1.80 1.99 2.13 2.28 2.29 2.19 2.05 1.95 1.91 1.84 1.73 1.77 1.83 1.89 2.00 2.17 2.31 2.39 2.64 2.85 3.00 2.96 2.74 2.50 2.34 1.92 1.91 1.97 1.73 1.47 1.27 1.27 1.38 1.54 1.61 1.60
1.01 1.21 1.44 1.59 1.74 1.71 1.67 1.70 1.82 2.00 2.16 2.18 2.22 2.19 2.06 1.93 1.82 1.71 1.64 1.72 1.74 1.75 1.91 2.04 2.15 2.43 2.64 2.77 2.82 2.71 2.61 2.59 2.29 2.02 1.86 1.83 1.69 1.47 1.31 1.31 1.37 1.45 1.54